Greenville, AL

10:55 AM CDT on June 27, 2017 (GMT -0500)
Greenville Municipal

Weather History for KPRN - August, 2014

Change the Weather History Date:

Thursday, August 28, 2014

  Actual Average Record
Temperature  
Mean Temperature 78 °F -  
Max Temperature 91 °F 90 °F 102 °F (1954)
Min Temperature 64 °F 68 °F 62 °F (1952)
Cooling Degree Days 12    
Growing Degree Days 28 (Base 50)    
Moisture  
Dew Point 64 °F    
Average Humidity 67    
Maximum Humidity 90    
Minimum Humidity 35    
Precipitation  
Precipitation 0.00 in - - ()
Sea Level Pressure  
Sea Level Pressure 29.99 in    
Wind  
Wind Speed 1 mph (ESE)    
Max Wind Speed 5 mph    
Max Gust Speed -    
Visibility 10 miles    
Events      
Averages and records for this station are not official NWS values.
T = Trace of Precipitation, MM = Missing Value Source: NWS Daily Summary

Daily Weather History Graph

Daily Weather History Graph

Search for Another Location

Airport or City:

Trip Planner

Search our weather history database for the weather conditions in past years. The results will help you decide how hot, cold, wet, or windy it might be!

Date:

Astronomy

Aug. 28, 2014 Rise Set
Actual Time 6:19 AM CDT 7:15 PM CDT
Civil Twilight 5:54 AM CDT 7:40 PM CDT
Nautical Twilight 5:24 AM CDT 8:09 PM CDT
Astronomical Twilight 4:54 AM CDT 8:40 PM CDT
Moon 8:58 AM CDT (8/28) 8:53 PM CDT (8/28)
Length of Visible Light 13h 45m
Length of Day
12h 55m
Waxing Crescent, 9% of the Moon is Illuminated
Aug 28
Waxing Crescent
Sep 2
First Quarter
Sep 8
Full
Sep 15
Last Quarter
Sep 24
New

Hourly Weather History & Observations

Time (CDT) Temp. Heat Index Dew Point Humidity Pressure Visibility Wind Dir Wind Speed Gust Speed Precip Events Conditions
12:56 AM 66.9 °F - 64.0 °F 90% 30.00 in 10.0 mi Calm Calm - N/A   Clear
1:56 AM 66.9 °F - 63.0 °F 87% 29.99 in 10.0 mi Calm Calm - N/A   Clear
2:56 AM 66.0 °F - 62.1 °F 87% 29.99 in 10.0 mi Calm Calm - N/A   Clear
3:56 AM 66.0 °F - 62.1 °F 87% 29.99 in 10.0 mi Calm Calm - N/A   Clear
4:56 AM 64.9 °F - 61.0 °F 87% 29.99 in 10.0 mi Calm Calm - N/A   Clear
5:56 AM 64.9 °F - 61.0 °F 87% 30.01 in 10.0 mi Calm Calm - N/A   Clear
6:56 AM 64.9 °F - 61.0 °F 87% 30.01 in 10.0 mi Calm Calm - N/A   Clear
7:56 AM 73.0 °F - 64.0 °F 73% 30.02 in 10.0 mi Calm Calm - N/A   Clear
8:56 AM 79.0 °F - 66.0 °F 64% 30.02 in 10.0 mi Calm Calm - N/A   Clear
9:56 AM 84.9 °F 86.6 °F 64.9 °F 51% 30.02 in 10.0 mi Calm Calm - N/A   Clear
10:56 AM 88.0 °F 89.3 °F 64.0 °F 45% 30.02 in 10.0 mi Calm Calm - N/A   Clear
11:56 AM 88.0 °F 87.6 °F 60.1 °F 39% 30.01 in 10.0 mi Variable 3.5 mph - N/A   Clear
12:56 PM 89.1 °F 89.0 °F 61.0 °F 39% 30.00 in 10.0 mi Calm Calm - N/A   Mostly Cloudy
1:56 PM 91.0 °F 90.5 °F 60.1 °F 35% 29.99 in 10.0 mi North 3.5 mph - N/A   Mostly Cloudy
2:56 PM 90.0 °F 89.1 °F 59.0 °F 35% 29.97 in 10.0 mi Calm Calm - N/A   Clear
3:56 PM 88.0 °F 87.6 °F 60.1 °F 39% 29.97 in 10.0 mi South 4.6 mph - N/A   Clear
4:56 PM 88.0 °F 88.7 °F 63.0 °F 43% 29.96 in 10.0 mi ESE 4.6 mph - N/A   Clear
5:56 PM 86.0 °F 86.8 °F 63.0 °F 46% 29.95 in 10.0 mi SE 3.5 mph - N/A   Clear
6:56 PM 82.9 °F 86.5 °F 69.1 °F 63% 29.94 in 10.0 mi Calm Calm - N/A   Clear
7:56 PM 77.0 °F - 70.0 °F 79% 29.95 in 10.0 mi Calm Calm - N/A   Clear
8:56 PM 75.0 °F - 70.0 °F 84% 29.97 in 10.0 mi Calm Calm - N/A   Clear
9:56 PM 73.0 °F - 68.0 °F 84% 29.98 in 10.0 mi Calm Calm - N/A   Clear
10:56 PM 72.0 °F - 68.0 °F 87% 29.99 in 10.0 mi Calm Calm - N/A   Clear
11:56 PM 72.0 °F - 66.9 °F 84% 30.00 in 10.0 mi Calm Calm - N/A   Clear